This is the latest recevied weather packets stored in our database for station/object G1OCN-WX. If no packets are shown the sender has not sent any weather packets the latest 1 day(s).
| Time | Temp. | Humidity | Pressure | Rain* | Wind** | Luminosity | Snow |
|---|---|---|---|---|---|---|---|
| 1778047667 | 8.89° C | 85% | 1013 hPa | 0 mm | 4.02 m/s, 54° | - | - |
| 1778047607 | 8.89° C | 85% | 1013 hPa | 0 mm | 5.36 m/s, 60° | - | - |
| 1778047547 | 8.89° C | 85% | 1013 hPa | 0 mm | 5.81 m/s, 65° | - | - |
| 1778047487 | 8.89° C | 85% | 1012.9 hPa | 0 mm | 4.47 m/s, 65° | - | - |
| 1778047427 | 8.89° C | 84% | 1012.9 hPa | 0 mm | 4.47 m/s, 61° | - | - |
| 1778047367 | 8.89° C | 84% | 1013 hPa | 0 mm | 4.02 m/s, 60° | - | - |
| 1778047307 | 8.89° C | 84% | 1012.9 hPa | 0 mm | 4.47 m/s, 62° | - | - |
| 1778047247 | 8.89° C | 84% | 1012.9 hPa | 0 mm | 5.36 m/s, 63° | - | - |
| 1778047187 | 8.89° C | 84% | 1012.9 hPa | 0 mm | 6.26 m/s, 62° | - | - |
| 1778047127 | 8.89° C | 84% | 1012.9 hPa | 0 mm | 5.81 m/s, 70° | - | - |
| 1778047067 | 8.89° C | 84% | 1012.9 hPa | 0 mm | 5.81 m/s, 64° | - | - |
| 1778047006 | 8.89° C | 84% | 1012.9 hPa | 0 mm | 5.36 m/s, 60° | - | - |
| 1778046946 | 8.89° C | 84% | 1012.9 hPa | 0 mm | 4.47 m/s, 65° | - | - |
| 1778046886 | 8.89° C | 84% | 1012.9 hPa | 0 mm | 4.47 m/s, 65° | - | - |
| 1778046826 | 8.89° C | 84% | 1012.9 hPa | 0 mm | 4.47 m/s, 65° | - | - |
| 1778046766 | 8.89° C | 84% | 1012.9 hPa | 0 mm | 5.81 m/s, 65° | - | - |
| 1778046706 | 8.89° C | 84% | 1012.9 hPa | 0 mm | 5.81 m/s, 64° | - | - |
| 1778046646 | 8.89° C | 84% | 1012.9 hPa | 0 mm | 5.36 m/s, 66° | - | - |
| 1778046586 | 8.89° C | 84% | 1012.9 hPa | 0 mm | 4.47 m/s, 57° | - | - |
| 1778046526 | 8.89° C | 84% | 1012.8 hPa | 0 mm | 5.36 m/s, 55° | - | - |
| 1778046466 | 8.89° C | 85% | 1012.9 hPa | 0 mm | 5.81 m/s, 60° | - | - |
| 1778046406 | 8.89° C | 85% | 1012.9 hPa | 0 mm | 4.02 m/s, 61° | - | - |
| 1778046346 | 8.89° C | 85% | 1012.9 hPa | 0 mm | 4.02 m/s, 64° | - | - |
| 1778046286 | 8.89° C | 85% | 1012.9 hPa | 0 mm | 4.47 m/s, 64° | - | - |
| 1778046226 | 8.89° C | 85% | 1012.8 hPa | 0 mm | 5.81 m/s, 69° | - | - |
* Rain latest hour (hover to see other rain measurements)
** Current wind speed in m/s (hover to see current wind gust speed)